User: anonymous   Login
Location: Unspecified
(0.0000°N, 0.0000°E)
Time: 02:58:43
(UTC+00:00)
Language:

MERIDIAN 4 - Orbit

View from above orbital plane
View from above orbital plane
View from above satellite
View from above satellite

Ground track
Ground track

The orbit data is extracted from the following two-line orbital elements,

1 37398U 11018A   17232.54862005  .00000110  00000-0  10000-3 0  9992
2 37398  64.4961 158.1088 6788764 264.7161 170.4938  2.00595364 46136
Epoch (UTC): 20 August 2017 13:10:00
Eccentricity: 0.6788764
inclination: 64.4961°
perigee height: 2150 km
apogee height: 38208 km
right ascension of ascending node: 158.1088°
argument of perigee: 264.7161°
revolutions per day: 2.00595364
mean anomaly at epoch: 170.4938°
orbit number at epoch: 4613

The dashed part of the orbit path shows where the satellite is in the earth's shadow,  

DLR